Temperature
8 9 9 9 9 9 9 9 9 9 9 9 10 10 10 10 10 10 10 11 11 11 11 11 11 11 11 11 11 12 12 12 12 12 12 12 11 11 11 11 11 11 11
8 8 8 8 8 8 8 8 8 9 9 9 9 9 9 9 9 10 10 10 10 11 11 11 11 11 11 11 11 11 11 11 11 11 11 11 11 11 11 11 11 11 11
7 7 7 7 7 7 7 8 8 8 8 8 8 8 9 9 9 9 9 9 10 10 10 10 11 10 11 11 11 11 11 11 11 11 11 11 11 11 11 10 11 10 10
6 6 7 7 7 7 7 7 7 7 7 7 8 8 8 8 8 8 9 9 9 9 9 10 10 10 10 10 10 11 11 10 10 11 11 11 10 10 10 10 10 10 10
6 6 6 6 6 6 6 6 6 6 6 7 7 7 7 7 8 8 8 8 8 8 9 9 9 9 9 10 10 10 10 10 10 10 10 10 10 10 10 10 10 10 10
5 5 5 5 5 5 5 5 5 6 6 6 6 6 7 7 7 7 7 7 8 8 8 8 8 9 9 9 9 9 9 9 9 9 9 9 9 9 9 9 9 9 9
4 4 4 4 4 4 5 5 5 5 5 5 5 5 6 6 6 6 6 7 7 7 7 7 7 8 8 8 9 9 9 9 9 9 9 9 9 9 9 9 9 9 9
4 4 4 4 4 4 4 4 4 4 4 4 4 4 4 5 5 5 6 6 6 6 6 7 7 7 7 7 8 8 8 8 8 8 8 8 8 8 8 9 9 9 9
3 3 3 3 3 3 3 3 3 3 3 3 3 3 3 4 4 4 5 5 5 5 5 6 6 6 6 6 7 7 7 8 8 8 8 8 8 8 8 8 8 8 8
2 2 2 2 2 2 2 2 3 2 2 2 2 2 2 2 2 3 4 4 4 4 4 5 5 6 6 6 6 6 7 7 7 7 7 7 7 7 7 8 8 8 8
2 1 2 2 2 2 2 2 2 2 2 2 2 2 2 2 2 2 2 3 3 4 4 4 4 5 5 5 6 6 6 6 7 7 7 7 7 7 7 7 7 7 7
1 1 1 1 1 1 1 1 1 1 1 1 1 1 1 1 1 1 1 2 2 3 3 3 3 4 4 4 5 5 6 6 6 6 6 6 6 6 7 7 7 7 7
-0 -0 -0 0 0 0 0 0 1 1 1 1 1 1 1 1 1 1 1 1 1 2 2 3 3 3 3 4 4 5 5 5 5 6 6 6 6 6 6 6 6 6 6
-1 -1 -1 -1 -0 -0 -0 -0 0 0 0 0 0 0 0 0 0 0 0 0 0 1 1 2 2 2 3 3 4 4 4 5 5 5 5 5 5 6 6 6 6 6 6
-2 -2 -1 -1 -1 -1 -1 -1 -1 -0 -0 -0 -0 -0 -0 -0 -0 -0 -0 -0 -0 -0 1 1 2 2 2 3 3 3 3 4 4 5 5 5 5 5 5 5 6 6 6
-2 -2 -2 -2 -2 -2 -2 -1 -1 -1 -1 -1 -1 -1 -1 -1 -1 -1 -1 -1 -1 -1 -0 0 1 2 2 2 2 3 3 3 4 4 4 4 4 4 5 5 5 5 5
-3 -3 -3 -3 -3 -2 -2 -2 -2 -2 -2 -2 -2 -2 -1 -1 -1 -1 -1 -1 -1 -1 -1 -0 0 1 1 2 2 2 3 3 3 4 4 4 4 4 4 4 4 4 5
-3 -3 -3 -3 -3 -3 -3 -3 -3 -2 -2 -2 -2 -2 -2 -2 -2 -2 -2 -2 -1 -1 -1 -1 -0 0 1 1 1 2 2 2 3 3 3 3 4 4 3 4 4 4 4
-4 -4 -4 -4 -4 -4 -4 -4 -3 -3 -3 -3 -3 -3 -3 -3 -2 -2 -2 -2 -2 -2 -1 -1 -1 -0 0 0 1 1 1 2 2 2 2 3 3 3 3 3 3 3 3
-4 -4 -4 -4 -4 -4 -4 -4 -4 -4 -4 -4 -4 -3 -3 -3 -3 -3 -3 -2 -2 -2 -2 -2 -1 -1 -1 -0 -0 0 1 1 1 2 2 2 2 2 3 3 3 3 3
-5 -5 -5 -5 -5 -5 -5 -5 -5 -5 -4 -4 -4 -4 -4 -4 -3 -3 -3 -3 -3 -2 -2 -2 -2 -1 -1 -1 -1 -0 -0 0 1 1 1 1 1 1 2 2 2 2 2
-5 -5 -5 -5 -5 -5 -5 -5 -5 -5 -5 -5 -5 -5 -4 -4 -4 -4 -4 -3 -3 -3 -2 -2 -2 -2 -1 -1 -1 -1 -1 -0 -0 0 1 1 1 1 1 1 2 2 2
-6 -6 -6 -6 -6 -6 -6 -6 -6 -6 -5 -5 -5 -5 -5 -5 -5 -4 -4 -4 -3 -3 -3 -2 -2 -2 -2 -1 -1 -1 -1 -1 -0 0 0 -0 0 0 0 1 1 1 1
-7 -7 -7 -7 -6 -6 -6 -6 -6 -6 -6 -6 -6 -5 -5 -5 -5 -5 -5 -4 -4 -3 -3 -3 -3 -2 -2 -2 -2 -1 -1 -1 -1 -1 -0 -0 -0 -0 -0 0 0 0 1
-7 -7 -7 -7 -7 -7 -7 -7 -7 -7 -6 -6 -6 -6 -6 -6 -5 -5 -5 -5 -4 -4 -4 -3 -3 -3 -2 -2 -2 -2 -2 -2 -2 -1 -1 -1 -1 -1 -1 -0 -0 -0 0
-7 -8 -8 -7 -7 -7 -7 -7 -7 -7 -7 -7 -6 -6 -6 -6 -6 -6 -5 -5 -5 -4 -4 -4 -4 -3 -3 -3 -3 -3 -2 -2 -2 -2 -2 -2 -2 -1 -2 -1 -1 -1 -1
Wind_Speed
5 5 4 5 5 5 5 5 5 5 5 4 4 4 4 4 4 4 3 2 3 3 2 2 2 2 3 3 4 5 5 5 7 8 8 7 8 8 8 8 8 8 8
5 5 4 4 5 5 5 5 5 4 4 4 4 4 5 5 4 4 4 3 3 3 2 2 3 3 3 3 4 5 5 5 6 7 8 8 8 8 7 7 8 8 9
6 6 5 4 5 5 5 5 5 4 4 4 4 4 4 5 4 5 5 4 4 3 2 3 3 3 3 3 4 6 6 6 7 7 7 8 9 8 7 7 6 7 8
6 5 5 5 6 5 4 4 4 4 4 4 4 4 4 4 5 4 4 4 3 3 3 2 3 3 3 3 3 5 7 7 7 7 7 7 9 9 9 8 7 7 8
7 6 5 5 5 4 4 4 3 4 4 4 4 4 4 4 4 4 4 3 3 3 2 2 3 3 3 3 2 3 6 7 7 7 8 8 8 9 9 9 8 8 8
8 7 5 5 5 4 4 4 4 4 4 4 4 4 4 4 4 3 3 3 3 3 2 2 3 3 4 3 3 3 4 6 7 7 7 8 8 8 9 9 9 9 9
8 7 6 5 5 4 4 5 4 4 3 4 4 4 4 4 4 3 3 3 3 3 2 2 3 3 3 4 4 4 4 6 7 7 7 7 8 8 9 8 9 11 10
8 7 7 5 5 4 4 4 4 3 3 3 3 4 3 3 3 3 3 3 4 3 3 3 3 3 3 3 4 4 5 5 6 7 8 7 6 7 8 9 9 10 10
8 7 7 6 6 5 4 4 4 4 3 3 3 3 3 3 4 3 4 4 4 4 4 4 4 4 4 4 4 5 5 5 6 6 7 6 6 6 7 8 9 9 9
7 7 7 7 6 5 5 5 5 4 4 4 3 4 5 4 4 4 4 4 5 5 5 4 4 5 5 5 5 5 5 5 6 7 7 8 8 8 7 7 9 9 9
6 7 7 7 6 5 6 6 6 5 5 5 4 4 5 5 6 6 6 6 5 5 5 5 4 5 5 5 5 6 7 7 7 8 8 9 9 8 8 8 8 8 9
5 7 7 7 7 6 6 6 6 7 6 7 6 6 5 5 5 6 7 7 7 6 6 5 5 5 5 6 6 7 8 9 9 10 10 9 8 9 8 9 8 8 8
5 7 7 7 7 7 7 7 7 7 7 7 7 7 7 7 6 6 7 7 8 7 6 6 6 6 6 6 6 7 8 9 10 11 11 10 9 9 9 9 9 9 9
6 7 8 8 8 8 8 7 6 7 7 7 8 8 7 7 6 6 7 7 7 7 7 7 6 7 6 7 7 8 9 10 12 12 12 12 11 9 9 9 10 9 9
6 8 8 9 8 8 8 8 6 7 7 7 8 8 7 7 7 7 7 7 8 8 8 7 5 6 6 7 8 9 9 10 12 12 12 11 11 10 10 9 10 10 10
7 8 8 9 9 8 8 8 8 8 8 8 7 8 8 7 7 7 7 8 8 9 9 7 7 7 7 7 9 9 10 11 12 12 13 12 11 11 10 10 10 10 11
8 8 8 9 9 9 9 8 8 9 9 8 8 8 9 8 7 7 8 8 8 8 10 9 7 7 8 8 7 8 9 9 10 12 12 12 11 11 11 10 10 11 11
8 8 8 9 9 9 9 9 9 9 9 9 9 9 9 8 9 8 8 9 9 9 9 10 8 7 8 8 8 8 7 8 8 10 11 11 11 11 12 11 11 11 11
8 8 8 9 9 9 10 10 9 9 9 9 9 9 9 9 9 8 9 10 9 8 8 8 8 6 6 6 6 6 7 6 6 8 9 11 11 11 11 12 12 12 12
8 8 8 9 9 10 10 10 10 10 10 9 9 9 9 10 10 10 9 9 9 9 8 7 7 6 6 6 6 5 5 4 5 5 7 8 9 10 11 12 12 13 12
8 8 9 9 9 9 9 10 10 10 10 9 9 9 10 11 12 10 8 8 8 8 7 7 7 6 6 5 6 5 6 4 5 5 4 5 6 7 8 11 12 13 13
8 8 8 9 10 8 12 14 12 9 9 9 9 9 9 10 11 12 13 12 10 9 9 8 8 9 9 8 7 6 6 5 5 4 4 5 5 6 6 8 10 11 12
8 8 9 9 10 11 14 14 14 10 9 9 9 8 7 8 10 9 10 11 11 12 11 10 10 10 10 9 8 8 8 7 7 5 5 6 5 6 6 7 10 11 12
8 8 9 9 10 10 13 14 14 10 9 9 9 9 9 9 8 9 8 9 8 9 10 9 9 9 8 8 8 9 8 6 4 4 6 5 5 5 4 6 9 11 12
8 8 9 9 10 10 13 13 13 8 8 9 8 9 9 9 10 10 9 9 9 8 9 10 10 10 10 9 8 5 5 5 4 4 4 4 3 3 4 5 6 9 10
8 8 9 9 9 10 12 13 13 7 7 7 7 7 9 9 11 10 7 7 8 8 7 7 6 7 7 8 8 8 7 6 4 4 4 4 3 2 2 3 4 5 7
Wind_Direction
4 3 3 359 355 351 349 342 340 342 339 337 335 331 322 313 309 305 309 343 326 314 287 267 247 226 209 207 192 177 177 180 177 172 167 167 170 168 167 167 167 162 158
359 355 354 355 354 348 342 336 334 333 333 329 322 319 311 305 300 299 300 291 290 294 289 273 263 246 225 205 194 181 181 185 180 179 179 179 175 178 176 172 171 172 170
359 356 349 352 353 344 339 337 335 333 330 327 314 311 309 303 299 296 296 292 275 254 251 264 263 252 236 222 208 196 188 186 180 172 177 180 179 176 175 172 171 177 180
1 356 351 351 349 343 338 337 335 327 321 317 315 308 305 304 297 295 292 287 282 267 243 244 256 258 246 224 215 206 194 188 186 182 179 185 186 185 184 186 187 185 186
1 355 351 346 341 339 333 328 324 318 314 314 311 308 300 291 289 295 292 289 285 282 269 238 234 241 241 222 225 220 207 197 192 188 187 190 191 191 191 193 197 195 191
1 353 346 345 339 336 329 321 313 312 310 308 304 299 292 284 275 279 286 287 275 273 280 269 245 233 217 212 226 240 224 206 197 193 189 190 192 191 194 200 204 204 201
359 355 348 342 336 327 323 317 312 303 311 315 303 301 289 270 262 267 283 291 287 280 278 278 255 244 223 212 219 242 247 227 212 203 195 194 198 204 207 208 209 211 211
358 351 347 341 334 322 318 315 309 300 304 313 300 296 290 270 253 272 279 287 288 286 272 264 257 249 244 231 228 241 250 245 225 217 210 202 202 211 214 213 211 207 209
353 349 342 338 332 325 311 307 291 286 290 288 281 280 278 280 305 264 266 275 282 281 274 264 257 249 242 241 235 234 236 235 224 215 212 208 209 217 218 216 211 208 206
350 347 341 336 329 324 316 309 293 278 274 271 271 265 269 283 274 286 271 274 283 282 278 273 259 251 245 238 235 233 226 230 230 218 217 216 215 217 223 220 216 213 207
345 344 339 334 326 318 311 310 299 277 266 264 261 264 265 266 257 262 276 279 278 277 279 275 266 250 246 243 238 232 225 232 239 230 226 224 220 221 223 225 217 209 206
330 337 333 329 324 317 311 303 297 285 268 261 257 251 253 252 251 256 268 279 277 278 278 270 261 250 243 240 242 239 230 236 237 230 231 233 228 225 226 223 217 213 208
320 324 324 320 319 314 308 302 294 290 274 264 259 253 251 252 258 258 263 272 277 283 277 265 257 251 245 240 239 235 235 239 239 234 234 236 234 230 229 223 219 214 211
307 311 311 310 310 309 307 300 292 289 281 271 265 260 257 256 256 255 257 265 276 277 266 266 262 247 244 247 246 243 240 239 239 235 235 237 236 231 230 225 220 215 212
302 303 305 306 306 307 305 299 288 288 283 274 270 263 261 260 256 256 257 253 255 267 266 264 259 252 253 251 250 245 245 243 237 231 232 232 231 229 228 224 220 213 211
299 299 300 300 301 302 301 297 290 287 282 277 274 270 265 264 257 254 253 254 252 256 264 260 265 265 258 256 252 250 248 245 237 231 230 228 227 223 220 221 219 215 213
297 297 297 297 298 298 297 294 289 287 281 276 273 271 269 269 264 258 255 252 252 252 258 270 269 267 259 256 254 251 249 241 235 233 231 225 220 217 217 217 216 214 210
295 295 295 294 294 295 293 290 288 285 280 276 274 271 271 269 265 263 258 254 252 250 254 266 269 265 261 253 250 250 252 241 233 229 225 221 217 217 216 215 214 212 211
296 295 293 292 292 293 292 289 284 281 278 275 274 272 271 269 268 266 263 257 254 252 252 257 261 263 265 257 251 253 253 241 235 227 221 222 220 219 218 216 212 211 212
295 295 294 293 292 292 290 289 284 280 277 275 274 272 270 268 269 270 267 262 256 252 249 250 255 253 259 258 244 244 249 243 237 230 226 227 223 221 220 217 215 213 213
295 296 296 295 293 291 289 290 286 280 278 276 274 272 270 271 273 274 273 269 259 251 248 247 251 250 249 245 240 239 242 238 246 230 223 223 220 222 222 219 216 212 212
298 297 296 296 294 291 295 295 294 287 281 277 277 277 275 272 274 274 275 273 266 255 250 247 250 245 243 244 244 238 235 233 247 227 226 233 222 224 226 221 214 211 211
300 298 297 296 295 294 298 300 298 295 288 281 279 280 279 277 278 279 278 275 269 262 260 255 250 250 248 242 238 236 234 241 249 226 224 237 228 231 226 223 216 212 213
298 297 297 298 297 297 302 303 302 296 289 285 280 277 277 277 275 281 283 279 276 273 268 260 255 255 259 255 241 240 241 247 267 236 222 235 226 231 233 229 217 216 216
297 297 297 298 298 299 303 304 305 296 287 286 284 280 279 278 279 281 281 279 282 285 282 271 269 264 257 257 252 243 230 221 245 246 237 231 220 231 240 237 225 218 216
295 297 296 297 297 298 302 305 307 297 291 290 288 284 280 282 285 281 278 280 282 287 290 284 275 270 262 248 239 232 228 225 238 244 231 223 211 209 238 243 233 221 217
Height
1540 1539 1538 1537 1536 1536 1535 1534 1534 1533 1533 1533 1533 1533 1533 1533 1532 1532 1532 1532 1532 1532 1533 1533 1534 1535 1536 1536 1537 1538 1538 1539 1540 1541 1542 1543 1544 1545 1546 1547 1548 1549 1550
1539 1538 1537 1536 1535 1534 1533 1532 1532 1531 1530 1530 1530 1530 1530 1530 1530 1529 1529 1529 1529 1529 1530 1530 1531 1532 1533 1533 1534 1535 1536 1537 1538 1539 1540 1540 1541 1543 1544 1545 1546 1547 1548
1537 1536 1535 1533 1532 1532 1531 1530 1530 1529 1528 1528 1528 1528 1527 1527 1527 1526 1526 1526 1526 1526 1526 1527 1528 1529 1530 1530 1531 1532 1533 1534 1535 1536 1537 1538 1539 1540 1541 1542 1544 1545 1546
1535 1534 1533 1532 1531 1530 1529 1528 1527 1527 1526 1525 1525 1525 1524 1524 1523 1523 1523 1523 1523 1523 1523 1524 1525 1526 1526 1527 1528 1529 1530 1531 1532 1533 1534 1535 1536 1537 1539 1540 1541 1543 1544
1533 1532 1531 1529 1528 1528 1527 1526 1525 1524 1523 1523 1522 1521 1521 1521 1520 1520 1520 1520 1520 1520 1520 1520 1521 1522 1523 1524 1525 1526 1527 1528 1529 1530 1531 1532 1533 1534 1536 1537 1538 1540 1541
1531 1530 1528 1527 1526 1525 1524 1523 1522 1521 1521 1520 1519 1518 1517 1517 1517 1517 1517 1516 1516 1516 1517 1517 1518 1518 1519 1520 1521 1522 1524 1525 1525 1526 1528 1529 1530 1531 1532 1534 1535 1537 1538
1528 1527 1526 1524 1523 1522 1521 1520 1519 1519 1518 1517 1516 1515 1514 1513 1513 1513 1514 1513 1513 1513 1513 1513 1514 1515 1515 1516 1517 1518 1520 1521 1522 1523 1524 1526 1527 1528 1530 1531 1532 1533 1535
1526 1524 1523 1522 1520 1519 1518 1517 1516 1515 1514 1514 1514 1513 1512 1512 1510 1510 1510 1510 1510 1510 1510 1510 1510 1511 1511 1512 1513 1514 1515 1517 1518 1519 1520 1522 1523 1525 1526 1527 1529 1530 1531
1523 1522 1520 1519 1517 1516 1515 1514 1513 1512 1511 1511 1512 1513 1511 1509 1507 1506 1506 1506 1506 1506 1506 1506 1506 1507 1507 1508 1508 1510 1511 1512 1513 1515 1516 1517 1519 1521 1522 1524 1525 1526 1528
1521 1519 1517 1516 1514 1513 1512 1510 1509 1508 1508 1508 1508 1508 1509 1507 1507 1503 1503 1503 1503 1503 1502 1502 1502 1503 1503 1504 1504 1506 1506 1507 1509 1510 1512 1514 1515 1517 1518 1520 1521 1523 1524
1518 1516 1514 1513 1511 1510 1508 1507 1506 1505 1504 1504 1504 1504 1504 1504 1503 1502 1499 1498 1499 1499 1499 1498 1498 1498 1499 1499 1500 1501 1502 1503 1505 1506 1507 1509 1511 1512 1514 1515 1517 1519 1520
1514 1513 1511 1510 1508 1506 1505 1503 1502 1501 1500 1500 1500 1499 1499 1499 1499 1498 1497 1495 1494 1494 1494 1494 1494 1494 1494 1494 1495 1496 1498 1499 1500 1501 1503 1504 1506 1507 1509 1511 1512 1514 1516
1511 1509 1508 1506 1504 1502 1501 1499 1498 1496 1495 1495 1495 1494 1494 1494 1494 1494 1493 1492 1491 1489 1489 1489 1489 1490 1489 1490 1490 1491 1492 1494 1495 1496 1497 1499 1501 1502 1504 1506 1508 1509 1511
1507 1505 1504 1502 1500 1498 1496 1495 1493 1492 1490 1490 1489 1489 1489 1488 1489 1489 1489 1489 1487 1485 1484 1484 1484 1485 1484 1485 1485 1485 1487 1488 1489 1490 1492 1494 1495 1497 1499 1501 1503 1505 1506
1503 1501 1499 1497 1495 1493 1492 1490 1488 1487 1486 1484 1484 1483 1483 1482 1482 1483 1483 1484 1484 1481 1479 1479 1479 1479 1479 1479 1480 1480 1481 1482 1483 1485 1487 1488 1490 1492 1494 1496 1498 1500 1501
1499 1497 1495 1493 1491 1489 1487 1485 1483 1482 1481 1479 1479 1478 1477 1477 1476 1476 1477 1477 1477 1477 1474 1473 1473 1473 1474 1474 1474 1475 1475 1476 1477 1479 1481 1483 1485 1487 1489 1491 1492 1494 1496
1494 1492 1490 1488 1486 1484 1482 1480 1478 1477 1475 1474 1473 1473 1472 1471 1471 1470 1470 1471 1471 1470 1469 1467 1468 1468 1468 1468 1468 1469 1469 1470 1472 1473 1475 1477 1479 1482 1483 1485 1487 1488 1490
1490 1487 1485 1483 1481 1479 1477 1475 1473 1471 1470 1468 1468 1467 1466 1466 1465 1464 1464 1464 1464 1464 1463 1461 1461 1462 1462 1463 1463 1463 1464 1465 1466 1467 1469 1472 1474 1476 1478 1479 1481 1483 1485
1485 1483 1480 1478 1476 1474 1472 1470 1468 1466 1465 1463 1462 1461 1460 1460 1459 1458 1458 1457 1457 1457 1457 1457 1455 1456 1456 1457 1457 1457 1458 1459 1461 1462 1464 1466 1468 1470 1472 1474 1476 1478 1480
1480 1478 1475 1473 1471 1469 1467 1465 1463 1461 1460 1458 1457 1456 1455 1454 1453 1452 1451 1450 1451 1451 1451 1451 1450 1450 1450 1451 1452 1452 1453 1454 1455 1457 1459 1460 1462 1464 1466 1468 1470 1472 1474
1475 1473 1470 1468 1466 1464 1462 1460 1458 1456 1454 1453 1451 1450 1449 1448 1447 1446 1446 1445 1445 1444 1444 1444 1444 1444 1445 1446 1447 1447 1448 1449 1450 1452 1454 1455 1457 1458 1460 1462 1464 1466 1468
1471 1468 1466 1463 1461 1459 1457 1455 1454 1452 1450 1448 1446 1445 1444 1443 1442 1441 1440 1439 1439 1439 1439 1439 1439 1439 1439 1440 1442 1442 1443 1444 1445 1447 1449 1450 1452 1453 1455 1457 1458 1461 1463
1466 1463 1461 1459 1456 1454 1452 1450 1449 1447 1445 1443 1441 1440 1439 1438 1437 1435 1434 1434 1434 1433 1434 1434 1434 1434 1434 1435 1436 1437 1438 1439 1440 1441 1444 1445 1447 1448 1450 1451 1453 1455 1457
1461 1459 1456 1454 1451 1449 1447 1445 1443 1442 1439 1438 1436 1435 1434 1433 1432 1431 1429 1429 1428 1427 1428 1428 1428 1428 1429 1430 1431 1432 1433 1434 1435 1437 1439 1440 1441 1443 1444 1446 1447 1449 1452
1457 1455 1452 1449 1447 1444 1442 1440 1439 1436 1435 1433 1431 1430 1429 1428 1427 1427 1425 1424 1423 1422 1422 1422 1423 1423 1424 1425 1426 1427 1427 1428 1428 1430 1433 1434 1435 1437 1439 1440 1442 1444 1446
1453 1450 1447 1445 1442 1440 1437 1436 1434 1432 1430 1429 1427 1426 1425 1424 1423 1422 1421 1419 1418 1417 1417 1416 1417 1417 1418 1419 1420 1421 1422 1423 1423 1424 1427 1429 1430 1432 1433 1435 1437 1438 1440